Appleton, MN

9:46 AM CDT on August 21, 2017 (GMT -0500)
Appleton Municipal

Weather History for KAQP - October, 2013

Change the Weather History Date:

Saturday, October 12, 2013

  Actual Average Record
Temperature  
Mean Temperature 48 °F -  
Max Temperature 60 °F 57 °F 71 °F (1997)
Min Temperature 37 °F 35 °F 17 °F (2012)
Degree Days  
Heating Degree Days 16    
Moisture  
Dew Point 37 °F    
Average Humidity 62    
Maximum Humidity 87    
Minimum Humidity 34    
Precipitation  
Precipitation 0.00 in - - ()
Sea Level Pressure  
Sea Level Pressure 29.92 in    
Wind  
Wind Speed 18 mph (West)    
Max Wind Speed 28 mph    
Max Gust Speed 36 mph    
Visibility 10 miles    
Events Rain    
Averages and records for this station are not official NWS values.
T = Trace of Precipitation, MM = Missing Value Source: NWS Daily Summary

Daily Weather History Graph

Daily Weather History Graph

Search for Another Location

Airport or City:

Trip Planner

Search our weather history database for the weather conditions in past years. The results will help you decide how hot, cold, wet, or windy it might be!

Date:

Astronomy

Oct. 12, 2013 Rise Set
Actual Time 7:36 AM CDT 6:43 PM CDT
Civil Twilight 7:06 AM CDT 7:13 PM CDT
Nautical Twilight 6:32 AM CDT 7:47 PM CDT
Astronomical Twilight 5:58 AM CDT 8:21 PM CDT
Moon 3:09 PM CDT (10/12) 12:23 AM CDT (10/12)
Length of Visible Light 12h 06m
Length of Day
11h 07m
First Quarter, 59% of the Moon is Illuminated
Oct 12
First Quarter
Oct 18
Full
Oct 26
Last Quarter
Nov 3
New
Nov 9
First Quarter

Hourly Weather History & Observations

Time (CDT) Temp. Windchill Dew Point Humidity Pressure Visibility Wind Dir Wind Speed Gust Speed Precip Events Conditions
12:13 AM 53.6 °F - 42.8 °F 67% 29.66 in 10.0 mi WSW 19.6 mph 27.6 mph N/A   Overcast
12:34 AM 53.6 °F - 42.8 °F 67% 29.66 in 10.0 mi WSW 13.8 mph - N/A   Overcast
12:53 AM 53.6 °F - 42.8 °F 67% 29.66 in 10.0 mi WSW 16.1 mph 23.0 mph N/A   Overcast
1:13 AM 53.6 °F - 42.8 °F 67% 29.68 in 10.0 mi West 20.7 mph 32.2 mph N/A   Overcast
1:33 AM 53.6 °F - 41.0 °F 62% 29.69 in 10.0 mi WSW 25.3 mph 31.1 mph N/A   Overcast
1:53 AM 53.6 °F - 42.8 °F 67% 29.69 in 10.0 mi WSW 16.1 mph 24.2 mph N/A   Overcast
2:13 AM 53.6 °F - 42.8 °F 67% 29.70 in 10.0 mi WSW 19.6 mph 28.8 mph N/A   Overcast
2:33 AM 53.6 °F - 41.0 °F 62% 29.71 in 10.0 mi WSW 19.6 mph 27.6 mph N/A   Overcast
2:53 AM 53.6 °F - 41.0 °F 62% 29.71 in 10.0 mi WSW 15.0 mph - N/A   Overcast
3:13 AM 53.6 °F - 41.0 °F 62% 29.71 in 10.0 mi WSW 18.4 mph 28.8 mph N/A   Overcast
3:34 AM 53.6 °F - 41.0 °F 62% 29.72 in 10.0 mi WSW 17.3 mph - N/A   Overcast
3:53 AM 53.6 °F - 41.0 °F 62% 29.73 in 10.0 mi WSW 18.4 mph 24.2 mph N/A   Overcast
4:13 AM 53.6 °F - 41.0 °F 62% 29.74 in 10.0 mi WSW 18.4 mph - N/A   Overcast
4:33 AM 53.6 °F - 41.0 °F 62% 29.75 in 10.0 mi WSW 17.3 mph 24.2 mph N/A   Overcast
4:53 AM 53.6 °F - 39.2 °F 58% 29.75 in 10.0 mi WSW 18.4 mph 26.5 mph N/A   Overcast
5:13 AM 53.6 °F - 41.0 °F 62% 29.74 in 10.0 mi West 19.6 mph 24.2 mph N/A   Overcast
5:33 AM 51.8 °F - 39.2 °F 62% 29.75 in 10.0 mi West 19.6 mph 31.1 mph N/A   Overcast
5:53 AM 51.8 °F - 39.2 °F 62% 29.76 in 10.0 mi WSW 19.6 mph 26.5 mph N/A   Overcast
6:14 AM 51.8 °F - 39.2 °F 62% 29.77 in 10.0 mi WSW 18.4 mph 24.2 mph N/A   Overcast
6:33 AM 51.8 °F - 39.2 °F 62% 29.78 in 10.0 mi WSW 18.4 mph 25.3 mph N/A   Overcast
6:53 AM 51.8 °F - 39.2 °F 62% 29.78 in 10.0 mi West 19.6 mph 25.3 mph N/A   Overcast
7:13 AM 51.8 °F - 39.2 °F 62% 29.79 in 10.0 mi West 19.6 mph 32.2 mph N/A   Overcast
7:33 AM 51.8 °F - 41.0 °F 67% 29.80 in 10.0 mi West 17.3 mph 27.6 mph N/A   Overcast
7:54 AM 51.8 °F - 41.0 °F 67% 29.80 in 10.0 mi West 18.4 mph 25.3 mph N/A   Overcast
8:13 AM 51.8 °F - 39.2 °F 62% 29.81 in 10.0 mi West 18.4 mph 29.9 mph N/A   Overcast
8:33 AM 51.8 °F - 39.2 °F 62% 29.82 in 10.0 mi West 23.0 mph 28.8 mph N/A   Overcast
8:53 AM 51.8 °F - 39.2 °F 62% 29.83 in 10.0 mi West 27.6 mph 35.7 mph N/A   Overcast
9:13 AM 51.8 °F - 39.2 °F 62% 29.84 in 10.0 mi West 24.2 mph 32.2 mph N/A   Overcast
9:33 AM 51.8 °F - 39.2 °F 62% 29.85 in 10.0 mi West 24.2 mph 31.1 mph N/A   Overcast
9:53 AM 51.8 °F - 39.2 °F 62% 29.86 in 10.0 mi West 21.9 mph 32.2 mph N/A   Overcast
10:13 AM 51.8 °F - 41.0 °F 67% 29.87 in 10.0 mi West 23.0 mph 26.5 mph N/A   Overcast
10:33 AM 50.0 °F - 41.0 °F 71% 29.88 in 10.0 mi West 19.6 mph 28.8 mph N/A Rain Light Rain
10:53 AM 50.0 °F - 39.2 °F 66% 29.89 in 10.0 mi West 23.0 mph 28.8 mph N/A   Overcast
11:13 AM 50.0 °F - 39.2 °F 66% 29.90 in 10.0 mi West 24.2 mph 32.2 mph N/A   Overcast
11:33 AM 48.2 °F - 41.0 °F 76% 29.91 in 7.0 mi West 19.6 mph 31.1 mph N/A Rain Rain
11:53 AM 46.4 °F 37.7 °F 41.0 °F 81% 29.94 in 7.0 mi WNW 26.5 mph 35.7 mph N/A   Drizzle
12:13 PM 46.4 °F 40.4 °F 42.8 °F 87% 29.94 in 10.0 mi West 13.8 mph 18.4 mph N/A Rain Light Rain
12:33 PM 48.2 °F - 42.8 °F 82% 29.94 in 10.0 mi West 8.1 mph - N/A   Overcast
12:53 PM 48.2 °F - 42.8 °F 82% 29.95 in 10.0 mi West 16.1 mph 24.2 mph N/A   Mostly Cloudy
1:13 PM 51.8 °F - 39.2 °F 62% 29.95 in 10.0 mi West 19.6 mph 24.2 mph N/A   Mostly Cloudy
1:33 PM 53.6 °F - 37.4 °F 54% 29.95 in 10.0 mi West 19.6 mph 29.9 mph N/A   Mostly Cloudy
1:53 PM 53.6 °F - 35.6 °F 51% 29.95 in 10.0 mi West 20.7 mph 25.3 mph N/A   Overcast
2:14 PM 55.4 °F - 35.6 °F 47% 29.96 in 10.0 mi WNW 25.3 mph 28.8 mph N/A   Mostly Cloudy
2:33 PM 55.4 °F - 35.6 °F 47% 29.97 in 10.0 mi WNW 19.6 mph 27.6 mph N/A   Scattered Clouds
2:54 PM 55.4 °F - 35.6 °F 47% 29.98 in 10.0 mi WNW 19.6 mph 27.6 mph N/A   Scattered Clouds
3:13 PM 55.4 °F - 33.8 °F 44% 29.99 in 10.0 mi WNW 25.3 mph 31.1 mph N/A   Scattered Clouds
3:33 PM 59.0 °F - 33.8 °F 39% 29.99 in 10.0 mi NW 23.0 mph 31.1 mph N/A   Scattered Clouds
3:53 PM 60.8 °F - 32.0 °F 34% 30.00 in 10.0 mi WNW 20.7 mph 27.6 mph N/A   Scattered Clouds
4:13 PM 59.0 °F - 30.2 °F 34% 30.01 in 10.0 mi WNW 25.3 mph 32.2 mph N/A   Clear
4:34 PM 59.0 °F - 30.2 °F 34% 30.01 in 10.0 mi WNW 23.0 mph 31.1 mph N/A   Clear
4:53 PM 59.0 °F - 32.0 °F 36% 30.02 in 10.0 mi WNW 23.0 mph 27.6 mph N/A   Clear
5:13 PM 60.8 °F - 32.0 °F 34% 30.03 in 10.0 mi WNW 18.4 mph 25.3 mph N/A   Scattered Clouds
5:34 PM 57.2 °F - 30.2 °F 36% 30.04 in 10.0 mi WNW 23.0 mph 28.8 mph N/A   Scattered Clouds
5:54 PM 57.2 °F - 30.2 °F 36% 30.05 in 10.0 mi NW 13.8 mph 23.0 mph N/A   Clear
6:13 PM 55.4 °F - 30.2 °F 38% 30.06 in 10.0 mi WNW 11.5 mph 19.6 mph N/A   Clear
6:33 PM 55.4 °F - 32.0 °F 41% 30.07 in 10.0 mi WNW 11.5 mph - N/A   Clear
6:53 PM 53.6 °F - 33.8 °F 47% 30.08 in 10.0 mi WNW 8.1 mph - N/A   Clear
7:13 PM 51.8 °F - 33.8 °F 50% 30.09 in 10.0 mi West 9.2 mph - N/A   Clear
7:33 PM 48.2 °F - 33.8 °F 58% 30.10 in 10.0 mi West 5.8 mph - N/A   Clear
7:53 PM 46.4 °F 44.3 °F 33.8 °F 62% 30.11 in 10.0 mi West 4.6 mph - N/A   Clear
8:13 PM 42.8 °F 40.1 °F 32.0 °F 66% 30.13 in 10.0 mi West 4.6 mph - N/A   Clear
8:33 PM 39.2 °F 35.9 °F 33.8 °F 81% 30.13 in 10.0 mi West 4.6 mph - N/A   Clear
8:53 PM 42.8 °F 38.0 °F 33.8 °F 70% 30.14 in 10.0 mi West 8.1 mph - N/A   Clear
9:13 PM 42.8 °F 39.3 °F 33.8 °F 70% 30.15 in 10.0 mi West 5.8 mph - N/A   Clear
9:33 PM 39.2 °F 33.6 °F 33.8 °F 81% 30.16 in 10.0 mi West 8.1 mph - N/A   Clear
9:53 PM 39.2 °F 33.6 °F 33.8 °F 81% 30.17 in 10.0 mi West 8.1 mph - N/A   Clear
10:13 PM 39.2 °F 35.0 °F 33.8 °F 81% 30.17 in 10.0 mi West 5.8 mph - N/A   Clear
10:34 PM 37.4 °F 33.8 °F 32.0 °F 81% 30.18 in 10.0 mi West 4.6 mph - N/A   Clear
10:54 PM 37.4 °F 31.4 °F 33.8 °F 87% 30.20 in 10.0 mi WSW 8.1 mph - N/A   Clear
11:13 PM 37.4 °F 32.1 °F 33.8 °F 87% 30.21 in 10.0 mi WSW 6.9 mph - N/A   Clear
11:33 PM 37.4 °F 32.1 °F 33.8 °F 87% 30.21 in 10.0 mi WSW 6.9 mph - N/A   Clear
11:53 PM 37.4 °F 32.1 °F 33.8 °F 87% 30.22 in 10.0 mi WSW 6.9 mph - N/A   Clear